Location: *
(37.9500°N, 27.3666°E)
Time: 04:20:42
(UTC+00:00)

H-2A R/B - Pass Details

Date: 24 October 2021
Orbit: 577 x 654 km, 98.5° (Epoch: 03 December)

Event Time Altitude Azimuth Distance (km) Brightness Sun altitude
Exits shadow 17:13:48 25° 9° (N) 1,220 3.5 -22.9°
Maximum altitude 17:16:12 81° 284° (WNW) 606 1.9 -23.4°
Drops below altitude 10° 17:20:25 10° 198° (SSW) 1,942 4.7 -24.2°
Sets 17:22:36 0° 197° (SSW) 2,853 5.6 -24.6°
